CAPE
1164 1120 634 474 168 0 0 0 0 0 0 0 0 0 0 0 0 0 0 0 0 0 0 0 0 0 0 0 0 0 0 0 0 0 0 0 0 0
1007 1106 971 667 371 6 0 0 0 0 0 0 0 0 0 0 0 0 0 0 0 0 0 0 0 0 0 0 0 0 0 0 0 0 0 0 0 0
1024 1094 937 823 571 42 0 0 0 0 0 0 0 0 0 0 0 0 0 0 0 0 0 0 0 0 0 0 0 0 0 0 0 0 0 0 0 0
1113 950 913 515 449 243 0 0 0 0 0 0 0 0 0 0 0 0 0 0 0 0 0 0 0 0 0 0 0 0 0 0 0 0 0 0 0 0
1210 1017 783 571 184 80 0 0 0 0 0 0 0 0 0 0 0 0 0 0 0 0 0 0 0 0 0 0 0 0 0 0 0 0 0 0 0 0
1122 1004 719 340 144 109 3 2 0 0 0 0 0 0 0 0 0 0 0 0 0 0 0 0 0 0 0 0 0 0 0 0 0 0 0 0 0 0
1154 841 697 378 91 61 2 2 0 0 0 0 0 0 0 0 0 0 0 0 0 0 0 0 0 0 0 0 0 0 0 0 0 0 0 0 0 0
419 294 74 4 0 0 0 0 0 0 0 4 2 0 0 0 0 0 0 0 0 0 0 0 0 0 0 0 0 0 0 0 0 0 0 0 0 0
126 43 7 0 0 0 0 0 0 0 0 0 0 0 0 15 0 0 0 0 0 0 0 0 0 0 0 0 0 0 0 0 0 0 0 0 0 0
72 45 0 0 0 0 0 0 0 0 0 0 0 0 9 5 0 0 0 0 0 0 0 0 0 0 0 0 0 0 0 0 0 0 0 0 0 0
0 0 0 0 0 0 0 0 0 0 0 0 0 0 0 0 0 0 0 0 0 0 0 0 0 0 0 0 0 0 0 0 0 0 0 0 0 0
0 0 0 0 1 1 0 0 0 0 0 0 0 0 0 0 0 0 0 0 0 0 0 0 0 0 0 0 0 0 0 0 0 0 0 0 0 0
0 0 1 0 0 0 0 0 0 0 0 0 0 0 0 0 0 0 0 0 0 0 0 0 0 0 0 0 0 0 0 0 0 0 0 0 0 0
1 1 0 1 0 0 0 0 0 0 0 0 0 0 0 0 0 0 0 0 0 0 0 0 0 0 0 0 0 0 0 0 0 0 0 0 0 0
1 0 0 0 0 0 0 0 0 0 0 0 0 0 0 0 0 0 0 0 0 0 0 0 0 0 0 0 0 0 0 0 0 0 2 2 0 0
0 0 0 0 0 0 0 0 0 0 0 0 0 0 0 0 0 0 0 0 0 0 0 0 0 0 0 0 0 0 0 10 13 16 15 10 14 6
0 0 0 0 0 0 0 0 0 0 0 0 0 0 0 0 0 0 0 0 0 0 0 0 0 0 0 0 0 0 5 7 4 1 5 1 7 5
0 0 0 0 0 0 0 0 0 0 0 0 0 0 0 0 0 0 0 0 0 0 0 0 0 0 0 0 0 0 1 0 1 3 2 0 0 0
0 0 0 0 0 0 0 0 0 0 0 0 0 0 0 0 0 0 0 0 0 0 0 0 0 0 0 1 0 0 0 5 6 9 18 8 4 9
0 0 0 0 0 0 0 0 0 0 0 0 0 0 0 0 0 0 0 0 0 0 0 0 0 0 2 2 1 0 0 4 4 9 12 13 13 0
0 0 0 0 0 0 0 0 0 0 0 0 0 0 0 0 0 0 0 0 0 0 1 1 4 0 2 0 2 2 5 0 0 4 10 16 5 2
0 0 3 3 2 2 0 0 0 0 0 0 0 0 0 0 0 0 0 3 1 0 0 1 0 0 0 0 2 0 1 13 1 0 0 0 0 4
8 16 37 26 22 19 17 22 15 26 15 23 14 21 0 1 9 14 12 1 3 0 1 0 3 3 1 7 3 6 5 3 6 4 7 0 0 0
CIN
0 0 0 -4 -6 0 0 0 0 0 0 0 0 0 0 0 0 0 0 0 0 0 0 0 0 0 0 0 0 0 0 0 0 0 0 0 0 0
0 -1 0 0 -1 0 0 0 0 0 0 0 0 0 0 0 0 0 0 0 0 0 0 0 0 0 0 0 0 0 0 0 0 0 0 0 0 0
0 0 0 0 -1 -23 0 0 0 0 0 0 0 0 0 0 0 0 0 0 0 0 0 0 0 0 0 0 0 0 0 0 0 0 0 0 0 0
0 0 0 -3 -2 -6 0 0 0 0 0 0 0 0 0 0 0 0 0 0 0 0 0 0 0 0 0 0 0 0 0 0 0 0 0 0 0 0
0 0 -1 -1 -16 -33 0 0 0 0 0 0 0 0 0 0 0 0 0 0 0 0 0 0 0 0 0 0 0 0 0 0 0 0 0 0 0 0
0 -1 -2 -16 -33 -31 -1 0 0 0 0 0 0 0 0 0 0 0 0 0 0 0 0 0 0 0 0 0 0 0 0 0 0 0 0 0 0 0
-1 -2 -4 -18 -48 -44 -1 0 0 0 0 0 0 0 0 0 0 0 0 0 0 0 0 0 0 0 0 0 0 0 0 0 0 0 0 0 0 0
-4 -33 -75 -24 0 0 0 0 0 0 0 0 0 0 0 -1 0 0 0 0 0 0 0 0 0 0 0 0 0 0 0 0 0 0 0 0 0 0
-5 -36 -76 0 0 0 0 0 0 0 0 0 0 0 0 -1 0 0 0 0 0 0 0 0 0 0 0 0 0 0 0 0 0 0 0 0 0 0
-12 -26 -1 0 0 0 0 0 0 0 0 0 0 0 -5 -1 0 0 0 0 0 0 0 0 0 0 0 0 0 0 0 0 0 0 0 0 0 0
0 0 0 0 0 0 0 0 0 0 0 0 0 0 0 0 0 0 0 0 0 0 0 0 0 0 0 0 0 0 0 0 0 0 0 0 0 0
0 0 0 0 0 0 0 0 0 0 0 0 0 0 0 0 0 0 0 0 0 0 0 0 0 0 0 0 0 0 0 0 0 0 0 0 0 0
0 0 0 0 0 0 0 0 0 0 0 0 0 0 0 0 0 0 0 0 0 0 0 0 0 0 0 0 0 0 0 0 0 0 0 0 0 0
0 0 0 0 0 0 0 0 0 0 0 0 0 0 0 0 0 0 0 0 0 0 0 0 0 0 0 0 0 0 0 0 0 0 0 0 0 0
0 0 0 0 0 0 0 0 0 0 0 0 0 0 0 0 0 0 0 0 0 0 0 0 0 0 0 0 0 0 0 0 0 0 0 0 0 0
0 0 0 0 0 0 0 0 0 0 0 0 0 0 0 0 0 0 0 0 0 0 0 0 0 0 0 0 0 0 0 0 0 -1 -1 -6 0 0
0 0 0 0 0 0 0 0 0 0 0 0 0 0 0 0 0 0 0 0 0 0 0 0 0 0 0 0 0 0 0 -1 -1 -4 -3 -5 -1 0
0 0 0 0 0 0 0 0 0 0 0 0 0 0 0 0 0 0 0 0 0 0 0 0 0 0 0 0 0 0 0 0 -2 -3 -3 -2 0 -1
0 0 0 0 0 0 0 0 0 0 0 0 0 0 0 0 0 0 0 0 0 0 0 0 0 0 0 0 0 0 0 0 0 0 0 -2 -2 -1
0 0 0 0 0 0 0 0 0 0 0 0 0 0 0 0 0 0 0 0 0 0 0 0 0 0 0 0 0 -1 0 0 0 0 0 -1 0 -1
0 0 0 0 0 0 0 0 0 0 0 0 0 0 0 0 0 0 0 0 0 0 0 0 -1 0 -1 -1 0 0 0 0 0 -2 0 0 0 0
0 0 0 0 0 0 0 0 0 0 0 0 0 0 0 0 -1 -2 -1 0 -1 0 -1 -2 -6 0 0 0 -1 -4 0 0 -5 -1 0 0 0 0
0 0 0 -1 0 0 0 0 -1 -1 -1 -3 -12 -5 0 0 0 0 -1 -1 -1 -1 -5 -4 -11 -4 -5 0 -2 -1 -2 -1 -2 -3 0 0 0 0
Wind_Speed
12 11 9 6 6 7 7 7 6 6 8 7 6 11 8 8 9 11 10 18 17 15 12 12 11 11 10 10 10 9 10 9 11 11 12 13 14 14
9 12 11 8 8 7 6 5 5 5 4 3 8 10 8 9 11 11 11 19 19 17 14 14 13 11 12 12 12 11 11 11 11 11 12 14 14 14
12 13 14 13 8 8 7 6 6 6 8 2 2 7 9 8 8 10 9 10 11 17 16 15 14 13 13 14 13 12 12 12 12 12 13 14 14 15
14 13 13 9 10 8 8 10 8 5 5 10 4 4 8 11 10 10 10 10 9 20 20 19 17 15 15 15 14 13 13 13 11 13 14 14 15 15
14 14 13 11 11 10 10 9 8 6 4 4 5 8 7 7 9 10 10 8 8 13 17 15 16 16 16 15 15 15 15 13 13 13 13 13 14 15
14 13 13 14 14 13 11 11 9 9 7 6 6 5 8 8 7 8 8 8 8 8 12 12 16 16 16 16 16 16 15 15 15 15 14 13 13 14
13 13 13 13 14 14 10 12 13 10 8 9 7 8 7 7 10 7 7 7 7 6 6 7 7 8 10 17 15 18 17 16 16 16 15 14 14 14
10 10 8 7 7 10 12 11 14 15 12 11 9 9 7 7 8 7 6 6 5 7 7 7 5 6 6 6 12 13 16 15 15 14 14 14 14 14
11 10 9 6 10 10 7 9 8 9 6 5 4 4 4 9 8 8 7 6 7 3 7 5 4 5 5 6 11 10 8 9 11 13 13 13 14 13
10 10 10 10 12 12 10 8 8 4 3 2 3 4 6 4 5 6 6 6 4 5 3 2 5 5 3 5 9 9 7 8 10 12 12 13 14 14
4 6 10 11 12 15 14 12 12 7 7 11 7 6 8 8 4 4 5 6 4 3 4 3 2 2 3 5 5 6 7 10 11 13 14 15 16 15
3 3 1 8 15 16 13 13 11 7 7 7 5 4 4 4 2 4 5 5 4 3 4 4 1 2 3 4 3 3 6 12 12 14 16 18 18 9
5 4 3 15 15 13 11 6 5 11 5 6 6 6 6 5 3 4 4 4 4 4 5 5 1 1 2 3 3 4 5 5 6 7 15 18 16 11
7 5 5 14 15 14 10 11 13 7 5 6 5 5 5 5 5 5 5 3 1 3 8 4 2 4 4 4 5 3 5 6 7 8 8 10 10 14
6 9 13 12 11 9 11 12 8 6 6 6 5 4 4 4 5 4 3 3 2 3 3 7 4 4 4 5 7 7 7 6 8 8 7 7 10 9
12 9 7 9 9 7 6 3 3 3 4 5 5 5 5 3 4 5 5 4 3 4 7 8 8 7 5 6 6 9 7 7 8 9 9 8 9 8
10 5 6 6 6 5 4 4 3 4 2 2 2 4 5 4 4 5 3 3 4 4 5 6 8 8 6 7 7 8 8 8 8 9 9 8 9 8
4 5 5 5 6 7 5 3 2 4 3 3 3 4 5 4 4 5 5 4 4 3 4 3 1 2 2 4 9 9 8 8 8 8 9 8 9 8
4 4 5 5 5 5 6 4 3 1 0 2 2 3 4 1 3 3 3 3 3 5 4 1 1 2 5 6 3 10 9 8 7 9 9 8 10 9
4 4 4 4 4 4 3 3 3 3 2 2 3 2 1 2 2 3 4 4 4 1 2 4 5 5 5 3 2 4 8 9 9 9 9 8 9 11
3 4 4 4 5 4 4 3 4 3 2 2 2 2 3 2 1 2 3 3 4 4 4 4 5 3 5 3 3 6 8 11 14 11 10 10 9 9
4 3 4 5 5 6 4 4 4 4 4 4 4 5 5 6 5 4 3 4 4 5 3 2 3 2 1 4 8 8 9 8 7 13 15 13 7 6
4 5 4 5 6 7 8 7 7 6 6 5 2 5 5 4 6 4 5 6 5 4 4 3 5 4 3 8 9 9 12 11 8 9 9 15 19 20
Wind_Direction
216 212 214 221 205 189 210 202 159 185 204 193 187 200 201 200 172 180 203 179 189 198 204 210 213 216 230 237 246 260 271 277 284 294 296 298 300 309
208 210 210 219 208 188 195 212 191 164 195 153 212 170 195 201 170 185 202 165 187 193 197 212 214 216 227 236 240 248 260 267 277 285 289 292 296 299
208 211 208 211 207 186 184 202 200 175 210 119 124 158 179 210 149 191 194 193 185 191 197 209 214 218 225 236 239 243 253 260 267 276 282 289 288 291
208 212 215 202 207 202 183 209 198 190 183 209 176 149 189 197 185 188 207 210 216 186 195 201 210 214 223 232 238 239 245 248 252 261 271 279 280 285
209 208 211 203 199 204 191 205 202 175 177 162 208 198 191 190 207 190 202 224 217 167 190 202 208 214 223 231 237 237 241 242 244 246 255 261 266 276
211 208 204 202 203 202 196 205 200 198 187 204 223 189 194 180 205 205 203 208 217 198 190 203 200 217 225 229 236 237 238 239 238 240 243 251 256 266
207 207 214 210 208 201 192 195 190 190 191 201 201 214 185 190 202 212 212 196 204 233 216 207 196 211 217 228 234 228 235 233 233 235 239 242 250 261
204 208 213 205 199 189 189 200 193 184 190 203 195 208 202 200 193 216 204 204 202 176 216 243 245 240 250 250 205 215 212 225 230 232 237 242 250 258
209 212 204 197 188 184 158 162 125 71 64 209 172 195 199 212 203 200 206 199 212 141 201 234 236 231 246 254 153 176 194 216 230 234 238 245 252 261
208 209 190 192 195 172 160 157 157 127 102 104 300 239 222 215 198 200 200 201 224 129 164 259 252 252 270 283 179 199 194 224 243 250 252 253 250 259
199 173 186 188 178 175 170 171 167 151 111 82 59 56 64 40 184 180 190 188 174 200 156 246 273 328 295 280 283 174 207 234 239 246 250 244 249 253
124 94 176 180 168 172 173 161 149 149 151 123 183 142 137 85 34 178 189 188 183 170 173 186 209 218 282 223 239 219 232 223 227 238 243 249 255 265
139 156 152 134 132 117 114 110 117 131 160 189 181 156 166 146 175 225 257 174 212 205 141 173 197 248 256 308 279 273 283 287 269 262 247 254 258 233
165 163 137 147 149 127 118 129 145 147 162 188 155 155 161 162 180 199 220 245 313 356 142 220 203 211 231 268 276 282 286 293 299 293 289 292 235 228
135 126 133 127 116 103 113 139 149 152 165 162 161 156 149 152 161 154 131 180 214 196 213 202 220 249 256 262 278 287 300 288 286 286 291 290 294 297
110 122 115 104 102 102 91 112 131 140 151 157 172 166 142 126 146 169 183 187 199 213 226 221 236 241 249 258 276 283 287 287 301 296 295 290 283 287
116 111 113 115 113 114 117 139 125 114 127 122 118 104 145 169 188 163 188 181 215 214 206 198 214 229 233 252 265 268 279 282 287 291 298 293 286 288
92 126 120 127 129 132 130 137 115 139 196 170 163 169 178 169 187 171 189 206 223 232 249 248 262 358 336 284 250 269 279 284 289 296 290 285 282 286
92 112 120 134 137 141 138 136 139 138 123 63 34 37 31 115 157 196 181 187 218 235 236 260 226 221 254 258 268 236 263 274 291 288 280 275 276 281
105 113 119 123 127 124 127 133 138 152 181 155 165 167 186 206 166 207 217 220 225 213 263 260 253 246 241 254 257 258 253 278 272 281 289 281 280 277
88 110 130 137 134 135 134 150 154 158 165 151 158 166 173 177 208 238 237 211 216 235 247 260 281 214 261 273 269 279 282 249 245 275 288 290 300 292
125 133 142 140 143 141 150 158 152 163 173 205 185 198 193 189 215 206 205 218 205 217 235 259 293 285 241 242 271 282 291 294 298 257 237 236 262 271
145 149 157 155 167 169 168 181 182 176 195 198 185 177 159 222 244 237 208 207 217 239 235 252 237 247 274 279 273 277 283 290 298 295 292 226 235 251